Regional Weather Roundup
Issued by NWS

Home | Current Version | Previous Version | Graphics & Text | Print | Product List | Glossary Off
Versions: 1 2 3 4 5 6 7 8 9 10 11 12 13 14 15 16 17 18 19 20 21 22 23 24 25 26 27 28 29 30 31 32 33 34 35 36 37 38 39 40 41 42 43 44 45 46 47 48 49 50

000
ASUS43 KFSD 292210
RWRSD

WEATHER ROUNDUP FOR SOUTH DAKOTA
NATIONAL WEATHER SERVICE SIOUX FALLS SD
500 PM CDT FRI APR 29 2016

NOTE: "FAIR" INDICATES FEW OR NO CLOUDS BELOW 12,000 FEET WITH NO
SIGNIFICANT WEATHER AND/OR OBSTRUCTIONS TO VISIBILITY.


SDZ001>005-009-010-012>017-292300-
NORTHWEST AND NORTH CENTRAL SOUTH DAKOTA

CITY           SKY/WX    TMP DP  RH WIND       PRES   REMARKS
BUFFALO          N/A     49  33  54 SE13      30.01F
FAITH            N/A     51  33  50 E10       30.07F
MOBRIDGE       PTSUNNY   60  38  43 SE9       30.05F
$$

SDZ012>016-024>037-041>051-057-063-072>074-292300-
SOUTHWEST AND SOUTH CENTRAL SOUTH DAKOTA

CITY           SKY/WX    TMP DP  RH WIND       PRES   REMARKS
RAPID CTY ARPT CLOUDY    44  35  70 NE7       30.05F
PIERRE         CLOUDY    50  38  63 SE13      30.07F
CUSTER         CLOUDY    32  30  92 NE13G21   29.99F FOG     WCI  22
ELLSWORTH AFB  CLOUDY    44  35  71 E5        30.05F
PHILIP         CLOUDY    48  38  68 E14       30.06F
PINE RIDGE     CLOUDY    42  34  73 NE13      30.00F
WINNER         CLOUDY    45  38  76 NE8       30.05F
$$

SDZ004>011-016>023-039-040-292300-
NORTHEAST SOUTH DAKOTA

CITY           SKY/WX    TMP DP  RH WIND       PRES   REMARKS
ABERDEEN       CLOUDY    58  37  45 SE6       30.10F
WATERTOWN      CLOUDY    52  37  56 SE7       30.11S
BROOKINGS      CLOUDY    49  38  65 E10       30.10F
SISSETON         N/A     59  37  44 SE9       30.10S
$$

SDZ017-020-022-023-036>040-048>070-292300-
SOUTHEAST SOUTH DAKOTA

CITY           SKY/WX    TMP DP  RH WIND       PRES   REMARKS
SIOUX FALLS    CLOUDY    51  40  65 E7        30.08F
HURON          CLOUDY    50  39  66 SE12      30.11F
CHAMBERLAIN    CLOUDY    49  43  81 E9G17     30.07F
MITCHELL       CLOUDY    51  42  71 E8        30.09F
YANKTON        CLOUDY    45  39  81 E9        30.07F
$$

ABBREVIATIONS USED IN REMARKS
   TC - TEMPERATURE IN CELSIUS
  WCI - WIND CHILL INDEX
   HX - HEAT INDEX
  VSB - VISIBILITY




USA.gov is the U.S. government's official web portal to all federal, state and local government web resources and services.